Temp
10 9 9 9 9 9 9 11 10 11 11 11 11 11 12 12 12 11 11 10 9 9 9 8 8 8 8 7 7 6 6 6 6 6 6 6 6 6 7 7 7 7 7 6 7 6 6 6 6
9 9 9 9 9 8 10 10 11 10 11 11 11 11 11 12 11 11 11 10 9 9 9 8 8 8 7 7 7 7 6 5 5 6 6 6 6 6 7 6 6 6 7 6 6 6 6 6 5
9 9 8 8 9 9 10 10 10 11 11 10 10 10 11 11 11 11 11 10 9 9 8 8 8 7 7 6 7 7 6 5 5 5 5 6 6 6 5 6 6 5 6 6 6 6 6 6 5
8 8 8 8 10 10 10 10 10 10 10 10 10 10 11 11 11 11 10 9 9 8 8 8 7 7 7 6 6 6 6 6 5 5 5 5 5 5 5 5 5 4 5 5 5 5 6 6 5
8 8 8 9 10 11 10 10 10 10 10 10 10 10 10 10 11 10 10 9 9 8 8 8 7 7 6 6 6 6 6 6 6 6 5 4 4 4 5 5 4 5 4 5 5 5 5 6 5
7 8 7 8 11 11 10 10 9 9 10 11 10 10 10 10 10 10 10 9 8 8 8 8 7 7 7 6 6 6 6 6 6 6 6 5 4 4 4 4 4 4 4 4 3 3 5 5 5
7 7 7 9 11 11 10 9 9 9 10 11 10 10 10 10 10 9 9 9 9 8 8 8 7 7 7 6 6 7 7 6 6 6 5 5 4 4 4 3 3 4 4 4 4 4 3 5 4
7 6 6 8 10 11 10 9 8 9 9 9 9 9 10 9 9 9 9 9 9 8 8 8 7 7 7 7 7 7 7 6 6 5 5 5 4 4 4 4 4 3 3 4 4 3 4 4 5
7 6 6 8 9 10 10 10 9 8 9 9 8 9 9 9 9 9 9 9 9 8 8 8 7 7 7 7 7 7 7 6 6 5 5 5 5 5 4 4 3 3 3 3 3 2 2 4 4
6 6 7 9 9 10 9 9 9 8 8 9 8 8 8 8 8 9 9 9 9 8 8 8 7 7 7 7 7 7 6 6 6 6 5 5 5 5 5 4 3 3 3 3 3 2 1 3 4
6 7 7 8 9 8 9 8 8 9 9 9 8 8 8 8 8 8 9 8 8 8 8 8 7 7 7 7 7 7 6 6 6 5 5 5 5 4 4 3 3 3 3 2 2 2 2 3 3
6 7 6 8 8 7 7 8 8 8 8 9 8 8 8 8 8 8 8 8 8 8 8 8 7 7 7 7 7 7 7 6 6 5 5 5 5 4 3 3 2 2 2 2 2 2 2 3 3
6 6 6 7 7 7 7 8 8 8 8 9 8 8 8 8 8 8 8 8 8 8 8 8 8 7 7 7 7 7 6 6 6 6 5 5 4 3 3 2 2 2 2 2 2 2 1 2 3
5 5 5 5 6 6 6 8 7 8 8 8 8 8 8 8 8 8 8 8 8 8 8 8 8 7 7 7 7 7 6 6 6 6 5 5 4 3 3 2 2 2 2 2 2 2 -1 2 3
4 4 4 5 5 6 6 7 8 8 8 8 8 8 8 7 7 8 8 8 8 8 8 8 8 8 7 7 7 7 6 6 6 6 5 5 4 3 3 2 1 1 2 1 1 -0 0 2 2
4 4 4 4 5 5 5 8 7 7 8 7 8 7 7 7 7 7 8 8 8 8 8 8 8 8 7 7 7 6 6 6 6 6 5 5 4 3 2 2 1 1 1 1 1 -0 -0 2 2
2 3 3 3 4 5 5 7 6 7 7 7 7 7 7 7 7 8 7 8 8 8 8 8 8 8 8 7 7 7 6 6 6 6 5 5 4 2 2 2 1 2 2 1 0 -0 -0 0 1
2 2 2 3 4 4 4 5 5 6 6 6 6 6 6 7 8 8 8 8 9 9 9 9 8 8 8 7 7 7 6 6 6 5 4 4 4 2 2 2 1 2 2 2 0 0 -1 -1 1
2 2 2 2 3 3 4 5 5 5 6 6 6 6 6 7 8 8 8 8 9 9 9 9 8 8 8 7 7 6 6 6 6 5 5 4 3 2 2 2 2 1 2 2 0 -0 -0 -1 0
1 1 1 2 3 3 3 5 4 5 6 6 6 6 6 7 7 8 8 8 9 9 9 9 9 8 8 7 7 6 6 6 6 6 5 3 2 2 2 2 2 1 1 1 0 -0 -1 0 2
1 1 1 2 3 3 2 4 4 5 6 6 6 6 6 6 6 7 8 8 9 9 9 9 9 8 8 7 7 6 6 6 6 5 4 4 1 2 2 2 2 2 1 0 0 -0 -2 1 1
1 1 1 1 1 1 2 -0 2 4 5 6 6 5 5 5 6 7 8 8 8 9 9 9 8 8 8 7 7 6 6 6 6 5 4 3 2 2 2 1 1 2 0 0 0 -1 -0 1 1
0 1 1 1 1 1 1 1 2 3 5 6 5 5 5 4 5 7 8 8 8 8 8 8 8 8 8 7 6 6 6 6 6 5 4 3 3 2 2 1 1 1 1 1 1 0 -0 -0 1
0 0 1 1 1 -2 1 2 2 4 4 4 4 4 4 4 5 5 7 8 8 8 8 8 8 8 7 7 6 6 6 6 6 5 3 3 3 2 2 2 1 1 1 1 1 -1 -1 -0 -0
-0 0 -1 -1 -2 -1 2 1 3 4 3 3 3 3 3 4 4 4 5 6 8 7 8 9 8 7 7 6 6 6 6 6 6 4 3 3 3 3 3 3 2 2 1 1 0 -0 -2 -3 -1
0 0 0 -0 -1 -0 2 1 3 3 3 3 3 2 2 3 3 4 5 5 8 7 8 8 8 8 6 6 6 6 6 6 6 4 3 3 3 3 3 2 2 2 1 1 1 -0 0 -1 -4
0 0 1 1 1 -0 2 2 3 3 3 3 3 3 3 3 3 4 5 6 7 7 8 8 8 8 6 6 6 6 6 6 5 4 3 3 3 3 3 2 2 1 0 1 1 1 -0 -1 -3
0 1 0 -0 -1 -0 -0 1 2 3 3 3 2 2 2 2 3 4 5 6 7 8 8 7 8 7 6 5 6 6 6 6 5 4 3 2 3 2 2 1 1 1 1 0 1 0 0 -1 -2
0 -1 0 0 1 -0 -0 1 2 2 2 2 1 2 1 2 2 3 5 7 7 7 7 8 8 7 6 6 6 6 6 6 5 4 3 3 3 3 2 1 1 1 1 1 0 1 -0 -1 -1
-0 -0 -0 -0 -0 0 1 1 2 2 1 1 1 1 0 0 -1 2 4 7 6 7 7 8 7 6 5 5 6 6 6 6 5 5 4 3 3 3 3 2 2 1 0 0 -1 -1 -1 -1 -1
Height
3122 3122 3122 3124 3128 3122 3120 3121 3121 3123 3124 3125 3125 3127 3129 3129 3130 3133 3128 3128 3129 3130 3129 3129 3129 3128 3127 3127 3128 3129 3130 3132 3134 3136 3138 3140 3142 3143 3144 3145 3145 3145 3146 3147 3148 3148 3149 3151 3153
3119 3119 3120 3120 3122 3118 3118 3118 3118 3120 3121 3123 3124 3126 3128 3128 3128 3127 3126 3127 3127 3128 3127 3127 3127 3126 3126 3126 3126 3127 3128 3131 3133 3135 3137 3138 3140 3141 3141 3143 3143 3144 3144 3145 3145 3146 3148 3150 3152
3116 3117 3119 3118 3115 3113 3116 3116 3117 3118 3118 3121 3123 3124 3125 3126 3126 3125 3125 3125 3125 3125 3125 3126 3126 3125 3124 3124 3125 3125 3127 3128 3132 3133 3134 3136 3137 3139 3139 3141 3143 3142 3144 3143 3144 3144 3146 3148 3150
3113 3115 3116 3113 3110 3111 3114 3116 3116 3117 3118 3119 3120 3121 3123 3124 3124 3123 3123 3122 3124 3123 3123 3124 3124 3123 3121 3122 3123 3124 3126 3127 3129 3130 3131 3133 3134 3135 3136 3137 3138 3140 3142 3142 3142 3143 3144 3146 3149
3109 3110 3110 3108 3106 3107 3112 3114 3113 3115 3115 3116 3116 3117 3119 3122 3122 3121 3121 3121 3121 3121 3122 3123 3122 3121 3121 3120 3121 3123 3125 3126 3127 3128 3128 3129 3130 3130 3133 3131 3128 3137 3139 3141 3142 3143 3143 3145 3147
3104 3105 3104 3103 3102 3105 3107 3110 3110 3111 3111 3112 3111 3114 3116 3119 3119 3119 3118 3118 3119 3119 3120 3121 3120 3119 3119 3119 3120 3121 3123 3123 3124 3125 3125 3124 3126 3127 3128 3129 3130 3133 3135 3137 3140 3141 3143 3143 3145
3100 3100 3097 3100 3099 3100 3103 3106 3107 3106 3107 3108 3108 3111 3114 3117 3116 3117 3116 3116 3117 3118 3118 3119 3119 3118 3117 3117 3117 3119 3120 3120 3121 3121 3121 3120 3122 3122 3124 3125 3127 3129 3132 3134 3136 3136 3139 3142 3143
3096 3095 3092 3095 3095 3095 3099 3102 3103 3103 3103 3103 3105 3108 3112 3113 3113 3113 3113 3114 3114 3115 3116 3116 3117 3116 3115 3114 3114 3115 3116 3116 3117 3116 3116 3116 3117 3118 3119 3120 3122 3124 3127 3129 3130 3129 3134 3137 3142
3090 3088 3083 3088 3090 3093 3095 3098 3099 3100 3100 3100 3102 3104 3108 3109 3110 3110 3111 3112 3112 3112 3113 3114 3114 3113 3112 3111 3111 3111 3111 3112 3112 3112 3111 3112 3112 3113 3114 3115 3118 3121 3122 3124 3123 3123 3127 3132 3139
3082 3077 3075 3085 3089 3091 3092 3094 3096 3096 3096 3098 3098 3099 3101 3103 3105 3106 3108 3109 3109 3109 3110 3110 3111 3110 3109 3108 3108 3107 3107 3107 3107 3106 3106 3106 3107 3108 3108 3110 3113 3114 3117 3118 3118 3121 3122 3129 3135
3076 3068 3075 3081 3086 3087 3086 3087 3089 3089 3090 3095 3094 3095 3095 3096 3098 3101 3103 3104 3105 3105 3106 3106 3106 3107 3105 3104 3104 3103 3103 3102 3102 3101 3100 3101 3101 3102 3102 3105 3106 3107 3110 3114 3113 3117 3122 3126 3132
3069 3067 3071 3076 3080 3079 3081 3081 3080 3081 3086 3092 3090 3091 3091 3092 3093 3096 3098 3099 3100 3100 3101 3102 3102 3102 3101 3100 3099 3098 3097 3097 3097 3096 3095 3095 3095 3096 3096 3099 3101 3101 3103 3107 3106 3110 3118 3125 3131
3061 3064 3067 3071 3074 3074 3076 3074 3073 3070 3081 3085 3085 3086 3087 3088 3089 3091 3093 3094 3095 3095 3096 3097 3097 3097 3097 3096 3094 3094 3094 3093 3092 3091 3089 3088 3088 3089 3091 3093 3094 3094 3094 3097 3100 3105 3111 3121 3128
3058 3058 3061 3064 3067 3068 3068 3066 3067 3066 3075 3076 3078 3080 3082 3083 3084 3086 3086 3088 3089 3090 3091 3092 3093 3093 3092 3091 3090 3090 3089 3088 3086 3085 3084 3082 3083 3084 3086 3087 3087 3086 3083 3088 3095 3101 3108 3119 3125
3052 3052 3055 3054 3059 3062 3066 3055 3057 3065 3069 3069 3072 3074 3076 3077 3078 3080 3081 3082 3083 3084 3086 3087 3088 3088 3088 3087 3085 3084 3083 3083 3081 3079 3078 3077 3077 3080 3081 3081 3081 3083 3086 3088 3092 3098 3109 3117 3122
3047 3048 3045 3048 3054 3057 3065 3036 3054 3058 3061 3062 3065 3066 3068 3071 3072 3073 3075 3075 3077 3077 3079 3080 3082 3083 3083 3083 3081 3079 3077 3076 3076 3074 3073 3072 3072 3075 3077 3077 3076 3080 3082 3088 3091 3096 3105 3113 3118
3041 3039 3040 3043 3049 3052 3054 3041 3049 3053 3054 3055 3056 3058 3060 3063 3064 3067 3067 3068 3069 3070 3072 3073 3076 3078 3079 3078 3076 3074 3073 3071 3070 3069 3068 3069 3068 3071 3073 3074 3074 3077 3077 3082 3088 3093 3101 3110 3116
3032 3035 3037 3039 3046 3047 3046 3037 3043 3047 3046 3047 3048 3050 3052 3054 3057 3058 3059 3061 3062 3064 3065 3066 3068 3071 3073 3073 3071 3070 3069 3067 3065 3064 3063 3063 3063 3065 3068 3070 3070 3070 3072 3076 3082 3088 3096 3107 3116
3031 3032 3033 3035 3040 3041 3040 3033 3035 3040 3039 3040 3041 3042 3044 3047 3050 3051 3051 3053 3055 3057 3058 3060 3062 3064 3066 3067 3066 3065 3063 3061 3059 3059 3057 3057 3058 3061 3063 3067 3067 3063 3064 3071 3079 3085 3092 3102 3109
3026 3028 3028 3030 3035 3037 3034 3017 3027 3030 3032 3034 3035 3036 3038 3039 3040 3040 3042 3044 3047 3049 3051 3053 3055 3057 3059 3061 3060 3059 3057 3055 3053 3052 3051 3050 3052 3056 3058 3063 3064 3064 3066 3070 3077 3081 3089 3098 3106
3019 3022 3025 3029 3031 3029 3027 3009 3018 3022 3023 3026 3029 3031 3032 3030 3026 3029 3032 3035 3038 3042 3044 3047 3048 3051 3053 3055 3054 3054 3052 3050 3049 3047 3046 3045 3047 3051 3054 3058 3061 3063 3067 3071 3074 3077 3085 3096 3100
3014 3018 3024 3026 3027 3025 3026 3012 3011 3016 3018 3019 3023 3024 3023 3020 3020 3021 3022 3027 3031 3034 3036 3039 3040 3044 3047 3049 3049 3048 3047 3045 3044 3042 3041 3041 3042 3047 3051 3054 3055 3059 3063 3065 3070 3074 3084 3092 3097
3010 3015 3019 3022 3021 3021 3022 3024 3008 3010 3011 3015 3016 3017 3017 3016 3014 3014 3012 3018 3023 3025 3029 3031 3034 3037 3041 3043 3044 3043 3041 3040 3039 3037 3037 3038 3039 3041 3044 3048 3051 3058 3059 3065 3069 3074 3079 3088 3095
3010 3012 3016 3018 3018 3015 3015 3019 3002 3007 3008 3008 3012 3013 3012 3010 3008 3004 3004 3005 3013 3016 3021 3023 3027 3031 3034 3038 3039 3038 3037 3035 3033 3032 3032 3034 3036 3038 3041 3044 3049 3053 3055 3056 3064 3068 3076 3083 3090
3006 3010 3013 3016 3016 3010 3010 3011 2998 3004 3005 3006 3007 3008 3008 3006 3001 2997 2995 2997 3004 3010 3014 3016 3019 3024 3028 3032 3033 3033 3032 3031 3029 3027 3027 3029 3032 3034 3036 3040 3045 3048 3052 3056 3054 3060 3067 3077 3086
3001 3004 3004 3006 3008 3005 3006 3000 2997 3000 3002 3003 3002 3002 3003 3001 2997 2992 2989 2988 2993 3001 3005 3008 3012 3017 3022 3027 3028 3028 3027 3026 3025 3023 3024 3026 3029 3031 3032 3034 3037 3043 3046 3051 3050 3056 3061 3065 3075
2996 2997 3002 3003 3002 3003 2999 2996 2996 2997 2998 2997 2998 2997 2995 2993 2988 2982 2980 2981 2987 2993 3000 3004 3005 3011 3017 3022 3023 3023 3023 3022 3021 3020 3021 3023 3024 3024 3024 3026 3030 3038 3041 3044 3047 3049 3056 3062 3068
2989 2994 2997 2999 3001 3000 2991 2991 2992 2994 2996 2995 2992 2991 2988 2986 2981 2974 2970 2971 2978 2985 2992 2995 2999 3006 3012 3017 3018 3019 3019 3019 3017 3017 3019 3020 3021 3021 3019 3021 3026 3031 3034 3038 3043 3047 3051 3055 3063
2987 2988 2991 2992 2993 2993 2991 2988 2989 2990 2991 2989 2985 2985 2982 2976 2972 2966 2961 2963 2971 2981 2984 2988 2993 3000 3007 3011 3013 3015 3016 3016 3015 3014 3015 3017 3018 3020 3021 3021 3024 3027 3030 3033 3037 3042 3046 3055 3061
2983 2984 2986 2987 2988 2989 2991 2984 2988 2988 2987 2985 2983 2979 2977 2969 2965 2959 2956 2956 2966 2975 2979 2984 2989 2995 3003 3007 3009 3011 3013 3014 3014 3013 3013 3015 3017 3017 3018 3020 3022 3024 3027 3029 3032 3040 3048 3053 3056
Wind_Speed
16 13 11 13 9 9 9 3 7 5 4 6 9 11 8 8 9 12 18 10 6 7 9 10 15 18 13 7 8 11 12 13 14 15 17 15 15 13 13 15 15 13 13 12 13 15 14 14 15
16 14 13 15 13 14 9 3 8 13 13 9 10 10 9 9 12 18 14 9 11 10 10 15 19 19 16 7 7 9 13 15 15 15 19 19 17 16 18 17 16 15 14 14 13 14 16 16 15
16 15 16 13 19 26 6 10 9 7 11 10 10 9 9 10 15 14 13 11 10 12 12 15 17 18 17 8 7 7 11 16 17 18 20 19 19 20 20 17 19 17 16 15 15 13 14 17 19
17 18 20 21 23 12 13 12 6 8 11 11 9 9 12 16 15 12 13 13 12 11 12 14 16 19 12 6 7 8 8 12 19 22 23 25 21 22 22 23 27 21 20 17 16 14 14 17 19
19 21 25 23 27 26 18 16 16 10 10 13 16 17 17 14 14 11 12 11 12 11 14 14 14 16 9 8 7 8 9 11 13 17 23 26 25 24 30 32 16 20 22 21 17 15 15 17 21
22 24 21 29 27 24 19 14 13 11 15 17 23 23 19 17 11 12 11 8 11 11 13 13 15 16 12 12 11 13 15 16 17 17 20 24 25 26 27 27 23 21 25 24 26 14 18 19 21
25 27 30 28 27 24 19 14 10 14 11 9 11 17 15 13 11 12 11 9 9 10 13 14 15 17 18 14 15 16 17 19 20 21 22 23 24 26 27 28 27 27 29 30 25 25 21 30 24
27 29 33 31 30 29 23 15 13 12 8 10 13 14 13 9 11 12 13 10 9 12 13 15 15 17 14 12 14 17 18 18 20 22 22 24 25 26 27 30 29 29 29 30 30 29 37 38 25
29 34 39 35 32 27 21 11 18 15 13 13 14 20 14 14 13 11 13 11 11 13 15 17 15 16 13 13 16 19 19 20 21 23 24 24 26 27 28 30 29 31 31 30 30 28 32 30 26
34 41 44 35 30 25 26 25 19 21 17 19 18 16 13 12 17 17 16 15 15 17 17 17 16 17 15 15 19 19 20 22 22 23 23 23 25 27 29 28 29 31 29 29 29 18 41 31 27
38 46 42 35 29 28 29 27 25 29 28 21 18 16 14 17 16 22 18 16 15 17 19 19 17 17 15 15 20 21 21 23 24 24 24 26 29 31 28 32 30 30 28 29 34 28 40 29 28
42 44 41 35 32 34 32 30 32 30 29 26 24 20 18 17 14 19 20 18 16 17 18 21 21 19 19 17 20 23 23 24 24 23 24 27 31 31 30 29 28 32 33 32 42 40 33 30 28
43 42 41 38 34 35 33 34 35 38 26 30 31 26 21 20 19 19 22 21 20 22 22 22 23 21 22 17 19 21 23 25 25 25 24 27 28 29 26 26 31 32 38 40 46 43 38 33 29
41 39 40 41 38 38 38 38 38 39 29 30 33 32 25 23 20 21 25 25 24 23 23 24 22 20 19 18 23 24 24 25 27 27 22 24 25 23 22 25 23 24 32 45 44 41 40 33 33
34 38 39 39 35 38 35 47 44 36 32 33 32 32 29 26 23 26 27 31 30 27 24 24 23 21 20 22 24 25 25 26 27 27 23 23 21 22 19 23 26 21 32 42 36 36 36 35 29
24 31 35 34 36 36 27 56 38 23 27 31 32 32 30 29 29 29 30 31 29 31 28 26 25 23 22 24 26 25 26 27 26 25 22 24 22 23 20 24 25 24 24 35 38 40 39 34 35
26 28 28 28 25 22 26 46 34 32 31 32 31 32 32 30 29 30 31 30 30 27 26 26 26 25 26 25 27 25 26 26 24 24 26 25 24 21 19 23 26 27 35 33 42 43 41 37 32
31 24 31 31 22 19 26 41 36 30 32 33 32 31 32 32 32 33 31 28 27 26 30 30 28 26 25 26 25 24 25 25 23 25 27 28 26 22 21 20 22 28 35 47 45 45 40 34 31
32 22 26 27 18 23 31 42 39 34 36 37 36 35 35 31 28 30 30 26 27 23 20 23 24 23 23 24 21 23 24 24 23 26 27 26 24 21 26 18 20 25 30 57 52 45 38 36 38
32 34 36 34 30 30 35 49 42 38 36 36 36 35 36 38 37 37 33 30 29 28 23 20 21 27 25 24 21 23 24 24 24 26 26 25 29 28 25 21 20 16 40 44 43 43 38 39 35
34 33 33 31 27 27 31 49 38 31 31 31 31 28 29 33 37 35 35 33 29 31 25 23 20 25 23 24 21 22 24 23 23 24 22 22 29 30 31 25 28 21 34 39 40 41 40 41 40
33 31 28 26 24 20 13 12 25 24 20 17 19 19 22 29 33 35 38 35 31 28 28 25 22 25 23 25 23 23 24 23 22 22 20 18 28 31 29 29 25 31 20 26 31 37 41 38 37
21 19 13 10 15 19 21 14 2 5 19 27 19 15 26 27 31 30 39 39 31 31 28 26 26 29 26 26 23 23 24 22 23 22 21 19 25 28 28 29 26 24 34 24 32 39 40 39 39
17 9 7 11 14 7 15 14 10 11 9 6 24 28 20 29 30 29 36 42 35 29 30 26 26 31 29 25 22 23 23 22 23 20 20 20 20 31 29 28 27 30 30 36 38 39 41 40 39
13 12 3 3 3 5 6 12 27 6 17 26 25 27 30 31 33 31 33 36 37 27 26 28 29 31 31 25 21 22 21 21 22 18 18 21 22 25 28 33 31 33 34 34 46 45 45 43 42
23 21 9 5 4 3 9 9 11 13 21 28 27 23 23 31 35 34 31 32 39 27 26 25 26 31 29 22 20 20 18 19 18 14 15 19 20 24 28 34 37 35 35 38 52 46 45 50 48
28 25 24 22 21 4 9 21 26 27 28 27 26 32 34 36 27 29 31 28 38 30 27 29 28 27 26 20 20 16 16 15 14 11 15 18 20 22 25 28 29 38 34 26 42 46 46 47 52
17 11 12 10 3 5 5 8 14 21 25 26 26 28 34 28 25 20 26 26 27 30 33 26 23 23 23 19 17 14 12 11 11 9 11 17 18 15 14 21 30 29 23 15 33 42 49 50 40
1 22 15 9 18 4 7 8 11 13 19 22 30 34 43 32 16 7 14 25 30 35 32 26 25 25 24 20 15 12 10 8 7 6 9 11 10 9 14 15 19 22 23 22 25 41 48 34 22
19 15 15 11 4 7 14 24 24 24 24 24 29 34 34 29 18 12 10 27 31 39 31 27 24 27 22 18 14 11 8 5 4 4 5 9 11 11 8 8 11 14 16 15 28 38 33 35 27
Wind_Direction
244 242 245 252 248 237 249 234 213 223 231 177 182 198 234 258 293 306 315 286 218 272 304 330 338 343 332 294 261 234 231 231 232 235 243 246 245 255 279 275 261 260 259 252 246 247 245 226 220
240 235 234 243 240 240 254 217 221 224 219 210 212 219 247 278 312 328 319 291 280 301 318 331 334 340 337 291 282 252 230 236 242 247 250 256 258 261 263 261 249 256 259 257 252 243 240 229 219
239 231 229 232 246 244 242 178 154 173 197 209 215 235 258 286 318 320 318 292 289 311 315 318 332 340 336 285 276 270 248 239 242 244 255 256 261 267 257 254 254 245 245 251 257 243 232 220 216
237 230 229 233 243 246 222 177 141 195 197 214 246 255 271 297 308 313 315 306 298 317 312 323 338 340 341 299 292 280 281 262 250 250 252 259 264 259 249 265 250 250 247 243 251 247 228 223 213
232 230 229 239 249 253 238 220 260 227 224 238 243 242 263 281 303 302 307 294 289 309 317 322 327 347 329 330 282 295 292 284 276 264 254 254 255 256 264 279 256 251 246 252 250 239 229 221 215
229 230 229 237 255 258 257 254 250 242 243 247 247 236 249 277 300 303 298 280 291 299 315 325 324 334 317 295 287 286 284 281 275 271 267 256 253 256 263 262 253 242 235 259 241 225 246 230 228
235 238 238 246 257 260 259 258 226 252 240 233 230 228 243 280 300 289 272 271 293 298 295 307 324 323 317 290 277 280 283 283 276 269 271 258 249 248 251 252 255 254 251 256 254 235 251 256 235
240 241 242 244 251 258 258 252 221 239 216 188 209 226 264 290 296 280 270 274 293 288 291 295 304 312 311 293 281 283 284 282 274 272 270 257 250 247 247 249 248 248 250 249 253 254 254 231 226
239 238 241 243 247 249 261 262 223 219 216 202 200 223 251 283 291 290 273 272 293 291 285 293 299 310 304 288 287 288 289 284 283 274 266 254 249 247 248 248 246 248 256 254 248 254 222 213 212
231 240 246 252 257 262 262 260 231 231 229 209 211 220 242 274 272 281 280 277 284 283 288 286 294 305 299 289 288 289 292 291 289 279 271 263 260 258 253 256 254 255 251 247 244 271 198 208 203
241 246 249 255 261 262 261 262 255 252 239 216 223 218 237 248 272 274 284 278 282 278 278 282 286 294 298 296 286 288 290 289 287 280 271 265 261 256 254 253 249 248 244 238 231 228 206 202 198
244 248 253 258 257 260 259 264 258 251 250 226 234 233 243 250 261 270 275 283 278 266 267 274 280 282 291 300 292 286 294 292 286 278 271 265 263 261 258 250 244 249 242 224 224 219 208 206 198
247 251 254 257 257 261 263 255 260 258 252 241 241 241 248 256 262 269 278 276 277 277 276 285 286 288 288 299 295 292 294 295 289 285 274 269 266 261 248 246 255 245 240 227 216 220 205 200 192
248 255 259 258 257 260 261 256 258 257 254 249 242 243 247 254 262 271 273 279 276 280 283 282 284 293 286 298 294 295 296 296 293 293 278 269 268 245 243 257 245 248 227 220 202 204 195 192 189
249 251 254 254 255 254 259 262 256 261 260 262 256 254 254 258 260 264 268 271 265 268 272 276 277 285 280 292 295 296 299 298 295 292 280 274 256 228 251 256 250 234 212 197 195 186 193 192 192
248 250 252 259 252 253 252 260 258 254 260 264 262 263 263 264 262 264 269 271 265 262 257 265 270 273 278 286 289 292 299 298 296 291 284 280 251 232 248 249 238 248 206 214 209 187 193 190 196
237 245 248 259 257 257 247 261 269 268 271 270 268 266 266 264 263 262 267 266 265 256 249 255 264 267 274 275 284 288 296 297 295 291 285 279 256 235 242 245 241 237 230 241 212 197 195 193 196
226 235 249 256 258 256 255 263 269 267 270 269 270 270 267 268 262 262 262 264 254 255 254 254 256 262 268 269 280 288 295 296 292 291 286 278 266 228 232 242 239 243 233 214 203 199 196 196 205
239 241 251 255 260 268 270 272 272 271 265 268 266 267 268 267 262 261 258 258 249 248 252 247 248 251 259 266 281 288 297 296 294 297 290 275 250 228 232 234 260 238 238 200 203 198 196 193 206
243 250 255 261 264 272 278 275 278 275 270 268 271 271 272 272 268 265 256 253 243 245 244 242 242 251 261 262 280 288 296 298 297 299 292 272 241 227 228 227 248 197 196 198 212 192 188 203 205
241 245 253 264 276 272 286 280 285 284 273 272 274 281 278 279 270 257 252 248 242 242 236 243 247 252 257 257 277 288 297 295 297 298 290 277 229 226 224 229 232 225 217 215 223 207 193 203 205
244 247 253 262 270 275 276 290 292 295 285 283 280 284 284 278 276 265 254 240 233 238 234 240 244 251 255 255 275 287 296 293 296 293 282 272 225 229 230 227 234 235 232 232 231 197 198 208 212
242 255 254 252 265 273 267 273 129 167 300 306 299 304 302 299 293 275 255 242 237 237 236 236 247 247 253 256 271 286 294 292 294 292 275 263 234 223 224 234 222 224 234 234 219 204 205 206 215
240 228 262 252 261 253 235 233 290 304 301 267 305 309 295 299 304 285 257 246 231 233 234 230 241 250 247 252 270 286 291 292 296 291 267 255 240 226 230 224 222 231 232 228 223 204 208 212 214
183 171 189 208 193 235 184 210 260 234 284 301 306 297 300 308 304 291 274 244 227 236 237 244 232 245 245 248 271 282 287 292 298 288 259 245 235 231 227 229 229 224 236 240 224 213 209 211 215
213 199 185 200 195 241 222 237 264 285 294 292 290 293 299 296 293 286 273 241 219 228 235 245 236 235 242 243 266 276 284 292 296 286 248 235 240 239 235 232 233 228 233 239 236 229 229 221 208
226 221 238 250 269 296 250 267 279 281 281 283 282 291 298 297 282 278 261 234 223 223 225 253 237 226 230 239 257 268 279 291 290 271 250 253 249 243 243 236 231 230 234 242 233 246 232 228 207
223 229 201 198 209 241 238 263 265 285 285 288 291 298 302 290 271 261 238 220 220 208 224 247 208 204 218 240 246 256 270 289 291 271 259 261 253 235 250 227 217 230 224 236 239 233 235 235 216
60 231 224 235 233 239 283 267 283 289 295 301 310 317 314 284 254 326 230 203 194 205 233 216 192 200 207 233 235 241 254 284 296 275 278 277 235 229 214 209 215 227 237 238 239 238 226 216 224
278 293 253 220 211 233 255 268 275 287 290 298 312 314 318 302 321 339 276 180 192 210 237 185 190 197 209 222 219 224 239 266 294 283 275 285 274 269 254 223 225 229 240 230 218 217 223 219 245